GFSFLT2_prec_precacc_156.txt.gz
Total_Precipitation_Accumulation
5.26 7.51 5.14 4.03 4.24 3.28 3.33 2.37 2.15 1.89 1.39 0.82 0.43 0.40 0.55 0.31 0.20 0.17 0.13 0.12 0.17 0.25 0.19 0.15 0.08 0.06 0.07 0.06 0.13 0.04 0.14 0.47
6.73 6.72 5.23 3.51 3.42 3.97 3.24 3.43 2.81 2.04 1.61 1.32 0.46 0.47 0.38 0.37 0.22 0.18 0.10 0.07 0.10 0.12 0.21 0.24 0.28 0.26 0.08 0.08 0.22 0.17 0.13 0.29
5.84 7.31 6.11 3.64 2.51 3.42 2.96 3.65 3.19 2.04 1.58 2.07 0.81 0.39 0.38 0.30 0.14 0.12 0.13 0.07 0.07 0.15 0.37 0.33 0.29 0.26 0.18 0.20 0.21 0.12 0.16 0.10
3.33 5.35 6.93 4.40 2.98 2.10 2.21 2.95 4.64 2.34 1.57 1.78 1.44 0.56 0.45 0.28 0.19 0.19 0.20 0.16 0.21 0.49 0.55 0.41 0.23 0.13 0.14 0.23 0.12 0.06 0.09 0.05
1.48 2.50 4.25 3.74 3.12 2.59 2.23 2.41 4.16 3.48 1.68 1.24 1.56 0.67 0.67 0.48 0.41 0.44 0.42 0.38 0.45 0.47 0.57 0.58 0.47 0.25 0.22 0.30 0.12 0.05 0.07 0.09
1.14 0.97 2.10 2.11 1.85 2.18 2.04 1.40 2.01 3.75 1.89 1.44 1.19 1.18 0.72 0.47 0.28 0.32 0.29 0.24 0.27 0.25 0.44 0.47 0.38 0.33 0.31 0.18 0.11 0.07 0.11 0.27
1.07 0.86 1.17 1.69 1.79 1.87 1.55 0.89 1.19 2.63 2.23 1.63 1.01 1.20 0.98 0.66 0.47 0.24 0.18 0.20 0.23 0.13 0.14 0.19 0.19 0.22 0.20 0.14 0.09 0.07 0.09 0.17
0.60 0.77 0.72 1.07 1.58 1.29 1.41 0.94 0.98 1.98 2.39 1.68 1.11 0.82 0.82 0.45 0.35 0.35 0.40 0.36 0.24 0.19 0.19 0.16 0.30 0.53 0.55 0.36 0.15 0.06 0.07 0.10
0.46 0.50 0.63 1.06 1.36 1.11 1.06 0.94 0.79 1.25 2.03 1.72 1.68 0.94 0.73 0.47 0.32 0.27 0.28 0.35 0.50 0.50 0.43 0.28 0.22 0.27 0.55 0.37 0.20 0.10 0.12 0.10
0.31 0.54 0.83 0.95 1.11 1.04 1.13 0.94 0.83 1.21 1.65 1.63 1.73 1.56 0.61 0.52 0.37 0.21 0.20 0.40 0.64 0.73 0.55 0.26 0.22 0.19 0.26 0.15 0.04 0.05 0.07 0.06
0.51 0.82 1.19 1.41 1.32 1.28 1.78 1.60 1.33 1.19 1.53 1.52 1.16 1.66 1.04 0.58 0.47 0.29 0.27 0.23 0.36 0.62 0.65 0.52 0.33 0.18 0.20 0.20 0.06 0.03 0.06 0.07
0.68 1.07 1.36 1.46 2.16 2.03 1.86 1.36 1.31 1.21 1.38 1.33 1.15 1.30 1.46 1.02 0.71 0.49 0.47 0.54 0.42 0.37 0.49 0.49 0.53 0.36 0.31 0.38 0.21 0.11 0.12 0.12
0.81 1.22 1.53 1.22 0.84 0.67 0.93 0.85 0.81 1.07 1.36 1.12 0.84 1.04 1.20 1.41 0.93 0.61 0.53 0.55 0.59 0.78 0.65 0.47 0.34 0.38 0.63 0.62 0.43 0.15 0.11 0.13
0.41 0.37 0.54 0.23 0.16 0.25 0.56 0.64 0.75 0.87 1.10 0.88 0.78 0.98 1.24 1.28 1.21 1.07 0.69 0.67 0.74 1.09 1.05 0.88 0.47 0.57 0.69 0.76 0.53 0.44 0.16 0.10
0.06 0.06 0.27 0.23 0.13 0.24 0.50 0.84 1.02 1.19 1.44 1.29 0.92 1.09 1.10 1.33 1.09 1.34 1.20 1.20 1.04 1.17 1.30 0.99 0.62 0.63 0.65 0.48 0.32 0.25 0.21 0.19
0.02 0.07 0.14 0.20 0.26 0.33 0.43 0.68 0.73 0.84 0.89 1.14 0.95 0.93 1.08 1.23 1.31 1.46 1.45 1.38 1.36 1.25 1.40 1.21 1.06 0.77 0.93 0.71 0.54 0.47 0.41 0.28
0.10 0.13 0.16 0.15 0.23 0.41 0.35 0.47 0.63 0.75 0.91 1.17 1.33 0.98 0.81 0.84 1.13 1.29 1.44 1.40 1.34 1.40 1.38 1.45 1.30 1.28 1.05 1.04 1.00 0.78 0.72 0.69
0.16 0.16 0.19 0.21 0.29 0.39 0.41 0.36 0.36 0.38 0.67 1.04 1.71 1.70 1.16 0.95 1.03 1.09 1.24 1.35 1.24 1.47 1.54 1.38 1.58 1.57 1.31 1.10 0.92 0.91 0.71 0.65
0.22 0.21 0.22 0.32 0.39 0.44 0.44 0.49 0.43 0.42 0.41 0.57 1.05 2.11 2.17 1.71 1.31 1.31 1.43 1.67 1.85 1.81 1.82 1.76 1.59 1.60 1.34 1.19 1.03 0.97 1.17 1.49
0.33 0.24 0.21 0.24 0.28 0.39 0.40 0.34 0.35 0.32 0.39 0.44 0.47 0.74 1.39 1.66 1.49 1.25 1.62 2.14 2.24 2.47 2.40 2.24 2.24 2.13 2.05 1.91 1.68 1.38 1.20 1.09

GFSFLT2_prec_precacc_159.txt.gz
Total_Precipitation_Accumulation
5.26 7.51 5.14 4.03 4.24 3.28 3.33 2.37 2.15 1.89 1.39 0.82 0.43 0.40 0.55 0.31 0.20 0.17 0.13 0.12 0.17 0.25 0.19 0.15 0.08 0.06 0.07 0.06 0.13 0.04 0.14 0.47
6.73 6.72 5.23 3.51 3.42 3.97 3.24 3.43 2.81 2.04 1.61 1.32 0.46 0.47 0.38 0.37 0.22 0.18 0.10 0.07 0.10 0.12 0.21 0.24 0.28 0.26 0.08 0.08 0.22 0.17 0.13 0.29
5.84 7.31 6.11 3.64 2.51 3.42 2.96 3.65 3.19 2.04 1.58 2.07 0.81 0.39 0.38 0.30 0.14 0.12 0.13 0.07 0.07 0.15 0.37 0.33 0.29 0.26 0.18 0.20 0.21 0.12 0.16 0.10
3.33 5.35 6.94 4.40 2.98 2.10 2.21 2.95 4.64 2.34 1.57 1.78 1.44 0.56 0.45 0.28 0.19 0.19 0.20 0.16 0.21 0.49 0.55 0.41 0.23 0.13 0.14 0.23 0.12 0.06 0.09 0.05
1.48 2.50 4.26 3.75 3.13 2.60 2.24 2.42 4.16 3.48 1.68 1.24 1.56 0.67 0.67 0.48 0.41 0.44 0.42 0.38 0.45 0.47 0.57 0.58 0.47 0.25 0.22 0.30 0.12 0.05 0.07 0.09
1.14 0.97 2.10 2.11 1.86 2.21 2.06 1.43 2.04 3.77 1.89 1.45 1.19 1.19 0.72 0.47 0.28 0.32 0.29 0.24 0.27 0.25 0.44 0.47 0.38 0.33 0.31 0.18 0.11 0.07 0.11 0.27
1.07 0.86 1.17 1.69 1.79 1.87 1.57 0.93 1.26 2.73 2.29 1.66 1.03 1.21 0.98 0.66 0.47 0.24 0.18 0.20 0.23 0.13 0.14 0.19 0.19 0.22 0.20 0.14 0.09 0.07 0.09 0.17
0.60 0.77 0.72 1.07 1.58 1.29 1.41 0.95 1.01 2.01 2.45 1.75 1.14 0.84 0.84 0.46 0.35 0.35 0.40 0.36 0.24 0.19 0.19 0.16 0.30 0.53 0.55 0.36 0.15 0.06 0.07 0.10
0.46 0.50 0.63 1.06 1.36 1.11 1.06 0.94 0.80 1.26 2.05 1.78 1.77 1.02 0.83 0.55 0.36 0.28 0.28 0.35 0.51 0.51 0.43 0.28 0.22 0.27 0.55 0.37 0.20 0.10 0.12 0.10
0.31 0.54 0.83 0.95 1.11 1.04 1.13 0.94 0.83 1.21 1.66 1.67 1.84 1.72 0.83 0.77 0.51 0.24 0.23 0.43 0.67 0.79 0.59 0.27 0.22 0.19 0.26 0.15 0.04 0.05 0.07 0.06
0.51 0.82 1.19 1.41 1.32 1.28 1.78 1.60 1.33 1.19 1.53 1.52 1.18 1.73 1.17 0.76 0.65 0.37 0.37 0.31 0.43 0.74 0.73 0.59 0.37 0.21 0.22 0.21 0.06 0.03 0.06 0.07
0.68 1.07 1.36 1.46 2.16 2.03 1.86 1.36 1.31 1.21 1.38 1.33 1.15 1.31 1.49 1.06 0.78 0.60 0.59 0.64 0.49 0.46 0.58 0.58 0.61 0.50 0.43 0.41 0.22 0.12 0.12 0.12
0.81 1.22 1.53 1.22 0.84 0.67 0.93 0.85 0.81 1.07 1.36 1.12 0.84 1.04 1.20 1.42 0.95 0.64 0.60 0.66 0.70 0.88 0.82 0.67 0.42 0.57 0.87 0.78 0.57 0.23 0.16 0.13
0.41 0.37 0.54 0.23 0.16 0.25 0.56 0.64 0.75 0.87 1.10 0.88 0.78 0.98 1.24 1.28 1.21 1.08 0.71 0.69 0.79 1.20 1.23 1.16 0.58 0.78 0.91 0.96 0.69 0.61 0.28 0.18
0.06 0.06 0.27 0.23 0.13 0.24 0.50 0.84 1.02 1.19 1.44 1.29 0.92 1.09 1.10 1.33 1.09 1.34 1.20 1.20 1.05 1.21 1.42 1.22 0.78 0.83 0.86 0.67 0.47 0.33 0.32 0.37
0.02 0.07 0.14 0.20 0.26 0.33 0.43 0.68 0.73 0.84 0.89 1.14 0.95 0.93 1.08 1.23 1.31 1.46 1.46 1.38 1.37 1.26 1.45 1.36 1.29 0.98 1.12 0.86 0.68 0.58 0.55 0.40
0.10 0.13 0.16 0.15 0.23 0.41 0.35 0.47 0.63 0.75 0.91 1.17 1.33 0.98 0.81 0.84 1.13 1.29 1.44 1.41 1.34 1.41 1.39 1.49 1.44 1.57 1.58 1.48 1.32 1.17 1.19 1.18
0.16 0.16 0.19 0.21 0.29 0.39 0.41 0.36 0.36 0.38 0.67 1.04 1.71 1.70 1.16 0.95 1.03 1.09 1.24 1.35 1.24 1.47 1.55 1.41 1.66 1.76 1.82 2.06 1.99 1.76 1.34 1.12
0.22 0.21 0.22 0.32 0.39 0.44 0.44 0.49 0.43 0.42 0.41 0.57 1.05 2.11 2.17 1.71 1.31 1.31 1.43 1.67 1.85 1.81 1.82 1.79 1.64 1.67 1.48 1.42 1.38 1.41 1.53 1.77
0.33 0.24 0.21 0.24 0.28 0.39 0.40 0.34 0.35 0.32 0.39 0.44 0.47 0.75 1.39 1.66 1.49 1.25 1.62 2.14 2.24 2.47 2.40 2.25 2.30 2.22 2.16 2.05 1.87 1.60 1.43 1.30

GFSFLT2_prec_precacc_162.txt.gz
Total_Precipitation_Accumulation
5.26 7.51 5.14 4.04 4.25 3.29 3.33 2.37 2.15 1.89 1.39 0.82 0.43 0.40 0.55 0.31 0.20 0.17 0.13 0.12 0.17 0.25 0.19 0.15 0.08 0.06 0.07 0.06 0.13 0.04 0.14 0.47
6.73 6.72 5.23 3.51 3.43 3.98 3.24 3.43 2.81 2.04 1.61 1.32 0.46 0.47 0.38 0.37 0.22 0.18 0.10 0.07 0.10 0.12 0.21 0.24 0.28 0.26 0.08 0.08 0.22 0.17 0.13 0.29
5.84 7.31 6.11 3.64 2.52 3.42 2.96 3.65 3.19 2.04 1.58 2.08 0.81 0.39 0.38 0.30 0.14 0.12 0.13 0.07 0.07 0.15 0.37 0.33 0.29 0.26 0.18 0.20 0.21 0.12 0.16 0.10
3.33 5.35 6.94 4.40 2.98 2.11 2.21 2.95 4.64 2.34 1.57 1.78 1.45 0.57 0.46 0.28 0.19 0.19 0.20 0.16 0.21 0.49 0.55 0.41 0.23 0.13 0.14 0.23 0.12 0.06 0.09 0.05
1.48 2.50 4.26 3.75 3.13 2.60 2.25 2.42 4.18 3.51 1.68 1.25 1.58 0.69 0.68 0.49 0.41 0.44 0.42 0.38 0.45 0.47 0.57 0.58 0.47 0.25 0.22 0.30 0.12 0.05 0.07 0.09
1.14 0.97 2.10 2.11 1.86 2.21 2.07 1.43 2.06 3.79 1.92 1.46 1.22 1.21 0.74 0.48 0.30 0.34 0.30 0.25 0.28 0.26 0.44 0.47 0.38 0.33 0.31 0.18 0.11 0.07 0.11 0.27
1.07 0.86 1.17 1.69 1.79 1.87 1.57 0.93 1.27 2.74 2.32 1.69 1.08 1.29 1.04 0.70 0.49 0.25 0.18 0.21 0.24 0.13 0.14 0.19 0.19 0.22 0.20 0.14 0.09 0.07 0.09 0.17
0.60 0.77 0.72 1.07 1.58 1.29 1.41 0.95 1.01 2.01 2.45 1.76 1.19 0.90 0.93 0.53 0.42 0.38 0.41 0.37 0.25 0.20 0.20 0.16 0.30 0.53 0.55 0.36 0.15 0.06 0.07 0.10
0.46 0.50 0.63 1.06 1.36 1.11 1.06 0.94 0.80 1.26 2.05 1.78 1.78 1.05 0.87 0.63 0.45 0.35 0.32 0.37 0.54 0.57 0.45 0.29 0.22 0.28 0.55 0.37 0.20 0.10 0.12 0.10
0.31 0.54 0.83 0.95 1.11 1.04 1.13 0.94 0.83 1.21 1.66 1.67 1.84 1.72 0.83 0.80 0.61 0.34 0.29 0.48 0.72 0.85 0.61 0.29 0.23 0.23 0.26 0.16 0.05 0.05 0.07 0.06
0.51 0.82 1.19 1.41 1.32 1.28 1.78 1.60 1.33 1.19 1.53 1.52 1.18 1.73 1.17 0.76 0.66 0.41 0.41 0.36 0.51 0.83 0.81 0.64 0.40 0.23 0.25 0.26 0.11 0.04 0.06 0.07
0.68 1.07 1.36 1.46 2.16 2.03 1.86 1.36 1.31 1.21 1.38 1.33 1.15 1.31 1.49 1.06 0.78 0.61 0.61 0.69 0.59 0.57 0.73 0.71 0.69 0.58 0.54 0.46 0.28 0.15 0.14 0.12
0.81 1.22 1.53 1.22 0.84 0.67 0.93 0.85 0.81 1.07 1.36 1.12 0.84 1.04 1.20 1.42 0.95 0.64 0.61 0.68 0.74 0.95 0.92 0.81 0.53 0.69 1.04 0.85 0.62 0.30 0.21 0.14
0.41 0.37 0.54 0.23 0.16 0.25 0.56 0.64 0.75 0.87 1.10 0.88 0.78 0.98 1.24 1.28 1.21 1.08 0.71 0.70 0.80 1.22 1.26 1.22 0.73 1.00 1.09 1.07 0.75 0.66 0.32 0.21
0.06 0.06 0.27 0.23 0.13 0.24 0.50 0.84 1.02 1.19 1.44 1.29 0.92 1.09 1.10 1.33 1.09 1.34 1.21 1.20 1.05 1.21 1.42 1.23 0.82 0.97 1.13 1.12 1.02 0.71 0.40 0.40
0.02 0.07 0.14 0.20 0.26 0.33 0.43 0.68 0.73 0.84 0.89 1.14 0.95 0.93 1.08 1.23 1.31 1.46 1.46 1.39 1.37 1.26 1.45 1.37 1.30 0.99 1.20 1.00 0.84 0.76 0.71 0.46
0.10 0.13 0.16 0.15 0.23 0.41 0.35 0.47 0.63 0.75 0.91 1.17 1.33 0.98 0.81 0.84 1.13 1.29 1.44 1.41 1.35 1.42 1.39 1.50 1.45 1.59 1.61 1.68 1.59 1.45 1.48 1.45
0.16 0.16 0.19 0.21 0.29 0.39 0.41 0.36 0.36 0.38 0.67 1.04 1.71 1.70 1.16 0.95 1.03 1.09 1.24 1.35 1.24 1.48 1.56 1.42 1.67 1.77 1.84 2.12 2.20 2.21 2.06 2.02
0.22 0.21 0.22 0.32 0.39 0.44 0.44 0.49 0.43 0.42 0.41 0.57 1.05 2.11 2.17 1.71 1.31 1.31 1.44 1.67 1.85 1.81 1.84 1.81 1.65 1.68 1.49 1.45 1.44 1.56 1.84 2.34
0.33 0.24 0.21 0.24 0.28 0.39 0.40 0.34 0.35 0.32 0.39 0.44 0.48 0.75 1.39 1.66 1.49 1.25 1.63 2.15 2.24 2.49 2.41 2.25 2.30 2.22 2.17 2.06 1.90 1.65 1.52 1.45

GFSFLT2_prec_precacc_165.txt.gz
Total_Precipitation_Accumulation
5.26 7.52 5.15 4.06 4.29 3.30 3.33 2.38 2.16 1.90 1.39 0.82 0.43 0.41 0.55 0.31 0.20 0.17 0.13 0.12 0.17 0.25 0.19 0.15 0.08 0.06 0.07 0.06 0.13 0.04 0.14 0.47
6.75 6.75 5.25 3.52 3.46 4.01 3.25 3.43 2.81 2.04 1.61 1.32 0.46 0.48 0.38 0.38 0.22 0.18 0.10 0.07 0.10 0.12 0.21 0.24 0.28 0.26 0.08 0.08 0.22 0.17 0.13 0.29
5.84 7.31 6.11 3.64 2.52 3.43 2.96 3.65 3.19 2.04 1.59 2.08 0.82 0.40 0.40 0.33 0.16 0.13 0.14 0.08 0.08 0.16 0.37 0.33 0.29 0.26 0.18 0.20 0.21 0.12 0.16 0.10
3.33 5.35 6.94 4.40 2.98 2.11 2.21 2.95 4.64 2.34 1.57 1.78 1.45 0.58 0.47 0.29 0.21 0.21 0.22 0.16 0.22 0.50 0.55 0.41 0.23 0.13 0.14 0.23 0.12 0.06 0.09 0.05
1.48 2.50 4.26 3.75 3.13 2.60 2.25 2.43 4.18 3.52 1.69 1.25 1.59 0.70 0.69 0.50 0.42 0.45 0.45 0.40 0.48 0.48 0.58 0.58 0.47 0.25 0.22 0.30 0.12 0.05 0.07 0.09
1.14 0.97 2.10 2.11 1.86 2.21 2.07 1.43 2.06 3.79 1.92 1.46 1.23 1.21 0.75 0.51 0.32 0.35 0.31 0.26 0.30 0.29 0.46 0.47 0.38 0.33 0.31 0.18 0.11 0.07 0.11 0.27
1.07 0.86 1.17 1.69 1.79 1.87 1.57 0.93 1.27 2.74 2.32 1.69 1.08 1.30 1.08 0.74 0.52 0.28 0.21 0.23 0.26 0.17 0.17 0.20 0.20 0.22 0.20 0.14 0.09 0.07 0.09 0.17
0.60 0.77 0.72 1.07 1.58 1.29 1.41 0.95 1.01 2.01 2.45 1.76 1.19 0.90 0.93 0.55 0.44 0.41 0.45 0.42 0.28 0.24 0.23 0.19 0.30 0.53 0.55 0.36 0.15 0.06 0.07 0.10
0.46 0.50 0.63 1.06 1.36 1.11 1.06 0.94 0.80 1.26 2.05 1.78 1.78 1.05 0.87 0.63 0.45 0.35 0.33 0.40 0.56 0.61 0.49 0.33 0.25 0.29 0.55 0.37 0.20 0.10 0.12 0.10
0.31 0.54 0.83 0.95 1.11 1.04 1.13 0.94 0.83 1.21 1.66 1.67 1.84 1.72 0.83 0.80 0.61 0.34 0.29 0.48 0.73 0.88 0.64 0.32 0.28 0.27 0.27 0.16 0.05 0.05 0.07 0.06
0.51 0.82 1.19 1.41 1.32 1.28 1.78 1.60 1.33 1.19 1.53 1.52 1.18 1.73 1.17 0.76 0.66 0.41 0.41 0.36 0.51 0.84 0.83 0.69 0.46 0.29 0.28 0.27 0.11 0.04 0.06 0.07
0.68 1.07 1.36 1.46 2.16 2.03 1.86 1.36 1.31 1.21 1.38 1.33 1.15 1.31 1.49 1.06 0.78 0.61 0.61 0.69 0.59 0.57 0.74 0.74 0.75 0.65 0.60 0.50 0.30 0.16 0.14 0.12
0.81 1.22 1.53 1.22 0.84 0.67 0.93 0.85 0.81 1.07 1.36 1.12 0.84 1.04 1.20 1.42 0.95 0.64 0.61 0.68 0.74 0.95 0.92 0.82 0.55 0.77 1.18 0.98 0.71 0.35 0.23 0.15
0.41 0.37 0.54 0.23 0.16 0.25 0.56 0.64 0.75 0.87 1.10 0.88 0.78 0.98 1.24 1.28 1.21 1.08 0.71 0.70 0.80 1.22 1.26 1.23 0.74 1.05 1.31 1.42 1.11 0.93 0.52 0.30
0.06 0.06 0.27 0.23 0.13 0.24 0.50 0.84 1.02 1.19 1.44 1.29 0.92 1.09 1.10 1.33 1.09 1.34 1.21 1.20 1.05 1.21 1.42 1.23 0.82 0.97 1.14 1.23 1.23 1.02 0.75 0.65
0.02 0.07 0.14 0.20 0.26 0.33 0.43 0.68 0.73 0.84 0.89 1.14 0.95 0.93 1.08 1.23 1.31 1.46 1.46 1.39 1.38 1.27 1.46 1.37 1.31 1.00 1.20 1.00 0.87 0.86 0.92 0.76
0.10 0.13 0.16 0.15 0.23 0.41 0.35 0.47 0.63 0.75 0.91 1.17 1.33 0.98 0.81 0.84 1.13 1.29 1.44 1.41 1.35 1.42 1.40 1.50 1.46 1.60 1.63 1.69 1.60 1.46 1.53 1.55
0.16 0.16 0.19 0.21 0.29 0.39 0.41 0.36 0.36 0.38 0.67 1.04 1.71 1.70 1.16 0.95 1.03 1.09 1.24 1.35 1.25 1.48 1.56 1.43 1.69 1.78 1.85 2.13 2.22 2.23 2.08 2.07
0.22 0.21 0.22 0.32 0.39 0.44 0.44 0.49 0.43 0.42 0.41 0.57 1.05 2.11 2.17 1.71 1.31 1.31 1.44 1.67 1.86 1.82 1.87 1.84 1.66 1.69 1.49 1.45 1.45 1.58 1.86 2.37
0.33 0.24 0.21 0.24 0.28 0.39 0.40 0.34 0.35 0.32 0.39 0.44 0.48 0.75 1.40 1.66 1.49 1.25 1.63 2.15 2.25 2.50 2.42 2.26 2.30 2.23 2.17 2.06 1.91 1.66 1.53 1.48

GFSFLT2_prec_precacc_171.txt.gz
Total_Precipitation_Accumulation
5.27 7.53 5.17 4.08 4.31 3.30 3.33 2.38 2.16 1.90 1.39 0.82 0.43 0.42 0.56 0.32 0.22 0.19 0.15 0.13 0.18 0.26 0.19 0.15 0.08 0.06 0.07 0.06 0.13 0.04 0.14 0.47
6.76 6.75 5.25 3.52 3.46 4.01 3.25 3.43 2.81 2.04 1.61 1.32 0.47 0.52 0.43 0.43 0.27 0.24 0.13 0.09 0.11 0.13 0.21 0.24 0.28 0.26 0.08 0.08 0.22 0.17 0.13 0.29
5.84 7.31 6.11 3.64 2.52 3.43 2.96 3.65 3.19 2.04 1.59 2.08 0.83 0.41 0.43 0.38 0.26 0.17 0.16 0.10 0.10 0.17 0.38 0.34 0.29 0.26 0.18 0.20 0.21 0.12 0.16 0.10
3.33 5.35 6.94 4.40 2.98 2.11 2.21 2.95 4.64 2.34 1.57 1.78 1.45 0.60 0.51 0.35 0.29 0.28 0.30 0.27 0.32 0.57 0.56 0.41 0.23 0.14 0.14 0.23 0.12 0.06 0.09 0.05
1.48 2.50 4.26 3.75 3.13 2.60 2.25 2.43 4.18 3.52 1.69 1.25 1.59 0.71 0.70 0.54 0.47 0.52 0.50 0.47 0.58 0.61 0.68 0.71 0.61 0.36 0.24 0.31 0.12 0.05 0.07 0.09
1.14 0.97 2.10 2.11 1.86 2.21 2.07 1.43 2.06 3.79 1.92 1.46 1.23 1.21 0.75 0.51 0.32 0.36 0.34 0.31 0.38 0.41 0.58 0.60 0.48 0.46 0.42 0.21 0.12 0.07 0.11 0.27
1.07 0.86 1.17 1.69 1.79 1.87 1.57 0.93 1.27 2.74 2.32 1.69 1.08 1.30 1.08 0.74 0.52 0.28 0.21 0.24 0.29 0.24 0.29 0.31 0.27 0.29 0.31 0.25 0.19 0.12 0.10 0.17
0.60 0.77 0.72 1.07 1.58 1.29 1.41 0.95 1.01 2.01 2.45 1.76 1.19 0.90 0.93 0.55 0.44 0.41 0.45 0.42 0.29 0.25 0.27 0.24 0.36 0.59 0.62 0.48 0.28 0.17 0.13 0.12
0.46 0.50 0.63 1.06 1.36 1.11 1.06 0.94 0.80 1.26 2.05 1.78 1.78 1.05 0.87 0.63 0.45 0.35 0.33 0.40 0.56 0.61 0.49 0.35 0.29 0.35 0.61 0.44 0.31 0.21 0.23 0.15
0.31 0.54 0.83 0.95 1.11 1.04 1.13 0.94 0.83 1.21 1.66 1.67 1.84 1.72 0.83 0.80 0.61 0.34 0.29 0.48 0.73 0.88 0.64 0.33 0.29 0.30 0.31 0.20 0.12 0.14 0.17 0.17
0.51 0.82 1.19 1.41 1.32 1.28 1.78 1.60 1.33 1.19 1.53 1.52 1.18 1.73 1.17 0.76 0.66 0.41 0.41 0.36 0.51 0.84 0.83 0.69 0.46 0.29 0.29 0.29 0.13 0.08 0.12 0.16
0.68 1.07 1.36 1.46 2.16 2.03 1.86 1.36 1.31 1.21 1.38 1.33 1.15 1.31 1.49 1.06 0.78 0.61 0.61 0.69 0.59 0.57 0.74 0.74 0.75 0.65 0.61 0.50 0.30 0.17 0.16 0.17
0.81 1.22 1.53 1.22 0.84 0.67 0.93 0.85 0.81 1.07 1.36 1.12 0.84 1.04 1.20 1.42 0.95 0.64 0.61 0.68 0.74 0.95 0.92 0.82 0.55 0.77 1.18 0.98 0.71 0.36 0.27 0.20
0.41 0.37 0.54 0.23 0.16 0.25 0.56 0.64 0.75 0.87 1.10 0.88 0.78 0.98 1.24 1.28 1.21 1.08 0.71 0.70 0.80 1.22 1.26 1.23 0.74 1.05 1.31 1.42 1.11 0.93 0.52 0.37
0.06 0.06 0.27 0.23 0.13 0.24 0.50 0.84 1.02 1.19 1.44 1.29 0.92 1.09 1.10 1.33 1.09 1.34 1.21 1.21 1.05 1.21 1.43 1.23 0.83 0.97 1.14 1.25 1.25 1.03 0.76 0.67
0.02 0.07 0.14 0.20 0.26 0.33 0.43 0.68 0.73 0.84 0.89 1.14 0.95 0.93 1.08 1.23 1.31 1.46 1.46 1.39 1.38 1.27 1.46 1.38 1.32 1.02 1.21 1.01 0.90 0.90 0.95 0.77
0.10 0.13 0.16 0.15 0.23 0.41 0.35 0.47 0.63 0.75 0.91 1.17 1.33 0.98 0.81 0.84 1.13 1.29 1.44 1.41 1.35 1.42 1.40 1.51 1.48 1.63 1.65 1.71 1.61 1.48 1.54 1.57
0.16 0.16 0.19 0.21 0.29 0.39 0.41 0.36 0.36 0.38 0.67 1.04 1.71 1.70 1.16 0.95 1.03 1.09 1.24 1.36 1.25 1.48 1.57 1.45 1.70 1.80 1.86 2.14 2.24 2.25 2.11 2.10
0.22 0.21 0.22 0.32 0.39 0.44 0.44 0.49 0.43 0.42 0.41 0.57 1.05 2.11 2.17 1.71 1.31 1.31 1.44 1.67 1.86 1.83 1.88 1.84 1.66 1.69 1.50 1.46 1.46 1.59 1.88 2.40
0.33 0.24 0.21 0.24 0.28 0.39 0.40 0.34 0.35 0.32 0.39 0.44 0.48 0.75 1.40 1.66 1.50 1.25 1.63 2.15 2.25 2.51 2.43 2.26 2.30 2.23 2.17 2.06 1.92 1.67 1.55 1.51

GFSFLT2_prec_precacc_174.txt.gz
Total_Precipitation_Accumulation
5.27 7.53 5.17 4.08 4.31 3.30 3.33 2.38 2.16 1.90 1.39 0.82 0.43 0.42 0.59 0.33 0.27 0.20 0.15 0.13 0.18 0.26 0.19 0.15 0.08 0.06 0.07 0.06 0.13 0.04 0.14 0.47
6.76 6.75 5.25 3.52 3.46 4.01 3.25 3.43 2.81 2.04 1.61 1.32 0.47 0.53 0.46 0.50 0.32 0.25 0.15 0.09 0.11 0.13 0.21 0.24 0.28 0.26 0.08 0.08 0.22 0.17 0.13 0.29
5.84 7.31 6.11 3.64 2.52 3.43 2.96 3.65 3.19 2.04 1.59 2.08 0.83 0.41 0.43 0.38 0.29 0.17 0.16 0.11 0.11 0.17 0.38 0.35 0.30 0.26 0.18 0.20 0.21 0.12 0.16 0.10
3.33 5.35 6.94 4.40 2.98 2.11 2.21 2.95 4.64 2.34 1.57 1.78 1.45 0.60 0.51 0.35 0.29 0.28 0.30 0.28 0.33 0.60 0.62 0.48 0.31 0.16 0.16 0.29 0.13 0.06 0.10 0.07
1.48 2.50 4.26 3.75 3.13 2.60 2.25 2.43 4.18 3.52 1.69 1.25 1.59 0.71 0.70 0.54 0.47 0.52 0.50 0.47 0.58 0.62 0.68 0.72 0.64 0.40 0.28 0.47 0.26 0.11 0.27 0.41
1.14 0.97 2.10 2.11 1.86 2.21 2.07 1.43 2.06 3.79 1.92 1.46 1.23 1.21 0.75 0.51 0.32 0.36 0.34 0.31 0.38 0.41 0.58 0.60 0.48 0.46 0.43 0.22 0.15 0.11 0.14 0.30
1.07 0.86 1.17 1.69 1.79 1.87 1.57 0.93 1.27 2.74 2.32 1.69 1.08 1.30 1.08 0.74 0.52 0.28 0.21 0.24 0.29 0.24 0.29 0.31 0.27 0.29 0.31 0.25 0.21 0.16 0.13 0.20
0.60 0.77 0.72 1.07 1.58 1.29 1.41 0.95 1.01 2.01 2.45 1.76 1.19 0.90 0.93 0.55 0.44 0.41 0.45 0.42 0.29 0.25 0.27 0.24 0.36 0.59 0.62 0.48 0.28 0.17 0.16 0.16
0.46 0.50 0.63 1.06 1.36 1.11 1.06 0.94 0.80 1.26 2.05 1.78 1.78 1.05 0.87 0.63 0.45 0.35 0.33 0.40 0.56 0.61 0.49 0.35 0.29 0.35 0.61 0.44 0.31 0.21 0.23 0.16
0.31 0.54 0.83 0.95 1.11 1.04 1.13 0.94 0.83 1.21 1.66 1.67 1.84 1.72 0.83 0.80 0.61 0.34 0.29 0.48 0.73 0.88 0.64 0.33 0.29 0.30 0.31 0.20 0.12 0.14 0.17 0.18
0.51 0.82 1.19 1.41 1.32 1.28 1.78 1.60 1.33 1.19 1.53 1.52 1.18 1.73 1.17 0.76 0.66 0.41 0.41 0.36 0.51 0.84 0.83 0.69 0.46 0.29 0.29 0.29 0.13 0.08 0.12 0.16
0.68 1.07 1.36 1.46 2.16 2.03 1.86 1.36 1.31 1.21 1.38 1.33 1.15 1.31 1.49 1.06 0.78 0.61 0.61 0.69 0.59 0.57 0.74 0.74 0.75 0.65 0.61 0.50 0.30 0.17 0.16 0.17
0.81 1.22 1.53 1.22 0.84 0.67 0.93 0.85 0.81 1.07 1.36 1.12 0.84 1.04 1.20 1.42 0.95 0.64 0.61 0.68 0.74 0.95 0.92 0.82 0.55 0.77 1.18 0.98 0.71 0.36 0.27 0.20
0.41 0.37 0.54 0.23 0.16 0.25 0.56 0.64 0.75 0.87 1.10 0.88 0.78 0.98 1.24 1.28 1.21 1.08 0.71 0.70 0.80 1.22 1.26 1.23 0.74 1.05 1.31 1.42 1.11 0.93 0.52 0.37
0.06 0.06 0.27 0.23 0.13 0.24 0.50 0.84 1.02 1.19 1.44 1.29 0.92 1.09 1.10 1.33 1.09 1.34 1.21 1.21 1.05 1.21 1.43 1.23 0.83 0.97 1.14 1.25 1.25 1.03 0.76 0.67
0.02 0.07 0.14 0.20 0.26 0.33 0.43 0.68 0.73 0.84 0.89 1.14 0.95 0.93 1.08 1.23 1.31 1.46 1.46 1.39 1.38 1.27 1.46 1.38 1.32 1.02 1.21 1.01 0.90 0.90 0.96 0.78
0.10 0.13 0.16 0.15 0.23 0.41 0.35 0.47 0.63 0.75 0.91 1.17 1.33 0.98 0.81 0.84 1.13 1.29 1.44 1.41 1.35 1.42 1.40 1.51 1.48 1.63 1.66 1.71 1.61 1.48 1.55 1.58
0.16 0.16 0.19 0.21 0.29 0.39 0.41 0.36 0.36 0.38 0.67 1.04 1.71 1.70 1.16 0.95 1.03 1.09 1.24 1.36 1.25 1.48 1.57 1.45 1.70 1.80 1.86 2.14 2.24 2.26 2.11 2.11
0.22 0.21 0.22 0.32 0.39 0.44 0.44 0.49 0.43 0.42 0.41 0.57 1.05 2.11 2.17 1.71 1.31 1.31 1.44 1.67 1.86 1.83 1.88 1.84 1.66 1.69 1.50 1.46 1.46 1.60 1.88 2.41
0.33 0.24 0.21 0.24 0.28 0.39 0.40 0.34 0.35 0.32 0.39 0.44 0.48 0.75 1.40 1.66 1.50 1.25 1.63 2.15 2.25 2.51 2.43 2.26 2.30 2.23 2.17 2.07 1.92 1.67 1.56 1.51

GFSFLT2_prec_precacc_180.txt.gz
Total_Precipitation_Accumulation
5.27 7.53 5.17 4.08 4.31 3.30 3.33 2.38 2.16 1.90 1.39 0.82 0.43 0.42 0.59 0.33 0.27 0.20 0.15 0.13 0.18 0.26 0.19 0.15 0.08 0.06 0.07 0.06 0.13 0.04 0.14 0.47
6.76 6.75 5.25 3.52 3.46 4.01 3.25 3.43 2.81 2.04 1.61 1.32 0.47 0.53 0.46 0.50 0.32 0.25 0.15 0.09 0.11 0.13 0.21 0.24 0.28 0.26 0.08 0.08 0.22 0.17 0.13 0.29
5.84 7.31 6.11 3.64 2.52 3.43 2.96 3.65 3.19 2.04 1.59 2.08 0.83 0.41 0.43 0.38 0.29 0.17 0.16 0.11 0.11 0.17 0.38 0.35 0.30 0.26 0.18 0.20 0.21 0.12 0.17 0.10
3.33 5.35 6.94 4.40 2.98 2.11 2.21 2.95 4.64 2.34 1.57 1.78 1.45 0.60 0.51 0.35 0.29 0.28 0.30 0.28 0.33 0.60 0.62 0.48 0.31 0.16 0.16 0.30 0.13 0.08 0.18 0.13
1.48 2.50 4.26 3.75 3.13 2.60 2.25 2.43 4.18 3.52 1.69 1.25 1.59 0.71 0.70 0.54 0.47 0.52 0.50 0.47 0.58 0.62 0.68 0.72 0.64 0.40 0.28 0.47 0.26 0.13 0.36 0.63
1.14 0.97 2.10 2.11 1.86 2.21 2.07 1.43 2.06 3.79 1.92 1.46 1.23 1.21 0.75 0.51 0.32 0.36 0.34 0.31 0.38 0.41 0.58 0.60 0.48 0.46 0.43 0.22 0.15 0.11 0.16 0.36
1.07 0.86 1.17 1.69 1.79 1.87 1.57 0.93 1.27 2.74 2.32 1.69 1.08 1.30 1.08 0.74 0.52 0.28 0.21 0.24 0.29 0.24 0.29 0.31 0.27 0.29 0.31 0.25 0.21 0.16 0.13 0.21
0.60 0.77 0.72 1.07 1.58 1.29 1.41 0.95 1.01 2.01 2.45 1.76 1.19 0.90 0.93 0.55 0.44 0.41 0.45 0.42 0.29 0.25 0.27 0.24 0.36 0.59 0.62 0.48 0.28 0.17 0.16 0.16
0.46 0.50 0.63 1.06 1.36 1.11 1.06 0.94 0.80 1.26 2.05 1.78 1.78 1.05 0.87 0.63 0.45 0.35 0.33 0.40 0.56 0.61 0.49 0.35 0.29 0.35 0.61 0.44 0.31 0.21 0.23 0.16
0.31 0.54 0.83 0.95 1.11 1.04 1.13 0.94 0.83 1.21 1.66 1.67 1.84 1.72 0.83 0.80 0.61 0.34 0.29 0.48 0.73 0.88 0.64 0.33 0.29 0.30 0.31 0.20 0.12 0.14 0.17 0.18
0.51 0.82 1.19 1.41 1.32 1.28 1.78 1.60 1.33 1.19 1.53 1.52 1.18 1.73 1.17 0.76 0.66 0.41 0.41 0.36 0.51 0.84 0.83 0.69 0.46 0.29 0.29 0.29 0.13 0.08 0.12 0.16
0.68 1.07 1.36 1.46 2.16 2.03 1.86 1.36 1.31 1.21 1.38 1.33 1.15 1.31 1.49 1.06 0.78 0.61 0.61 0.69 0.59 0.57 0.74 0.74 0.75 0.65 0.61 0.50 0.30 0.17 0.16 0.17
0.81 1.22 1.53 1.22 0.84 0.67 0.93 0.85 0.81 1.07 1.36 1.12 0.84 1.04 1.20 1.42 0.95 0.64 0.61 0.68 0.74 0.95 0.92 0.82 0.55 0.77 1.18 0.98 0.71 0.36 0.27 0.20
0.41 0.37 0.54 0.23 0.16 0.25 0.56 0.64 0.75 0.87 1.10 0.88 0.78 0.98 1.24 1.28 1.21 1.08 0.71 0.70 0.80 1.22 1.26 1.23 0.74 1.05 1.31 1.42 1.11 0.93 0.52 0.37
0.06 0.06 0.27 0.23 0.13 0.24 0.50 0.84 1.02 1.19 1.44 1.29 0.92 1.09 1.10 1.33 1.09 1.34 1.21 1.21 1.05 1.21 1.43 1.23 0.83 0.97 1.14 1.25 1.26 1.04 0.76 0.67
0.02 0.07 0.14 0.20 0.26 0.33 0.43 0.68 0.73 0.84 0.89 1.14 0.95 0.93 1.08 1.23 1.31 1.46 1.46 1.39 1.38 1.27 1.46 1.38 1.32 1.02 1.21 1.01 0.91 0.91 0.96 0.78
0.10 0.13 0.16 0.15 0.23 0.41 0.35 0.47 0.63 0.75 0.91 1.17 1.33 0.98 0.81 0.84 1.13 1.29 1.44 1.41 1.35 1.42 1.40 1.51 1.48 1.64 1.66 1.71 1.61 1.48 1.55 1.58
0.16 0.16 0.19 0.21 0.29 0.39 0.41 0.36 0.36 0.38 0.67 1.04 1.71 1.70 1.16 0.95 1.03 1.09 1.24 1.36 1.25 1.48 1.57 1.45 1.70 1.80 1.86 2.15 2.24 2.26 2.12 2.12
0.22 0.21 0.22 0.32 0.39 0.44 0.44 0.49 0.43 0.42 0.41 0.57 1.05 2.11 2.17 1.71 1.31 1.31 1.44 1.67 1.86 1.83 1.88 1.84 1.66 1.69 1.50 1.46 1.46 1.60 1.88 2.41
0.33 0.24 0.21 0.24 0.28 0.39 0.40 0.34 0.35 0.32 0.39 0.44 0.48 0.75 1.40 1.66 1.50 1.25 1.63 2.15 2.25 2.51 2.43 2.26 2.30 2.23 2.17 2.07 1.92 1.67 1.56 1.52

GFSFLT2_prec_precacc_183.txt.gz
Total_Precipitation_Accumulation
5.27 7.53 5.17 4.08 4.31 3.30 3.33 2.38 2.16 1.90 1.39 0.82 0.43 0.42 0.59 0.33 0.27 0.20 0.15 0.13 0.18 0.26 0.19 0.15 0.08 0.06 0.07 0.06 0.13 0.04 0.14 0.47
6.76 6.75 5.25 3.52 3.46 4.01 3.25 3.43 2.81 2.04 1.61 1.32 0.47 0.53 0.46 0.50 0.32 0.25 0.15 0.09 0.11 0.13 0.21 0.24 0.28 0.26 0.08 0.08 0.22 0.17 0.13 0.29
5.84 7.31 6.11 3.64 2.52 3.43 2.96 3.65 3.19 2.04 1.59 2.08 0.83 0.41 0.43 0.38 0.29 0.17 0.16 0.11 0.11 0.17 0.38 0.35 0.30 0.26 0.18 0.20 0.21 0.12 0.17 0.10
3.33 5.35 6.94 4.40 2.98 2.11 2.21 2.95 4.64 2.34 1.57 1.78 1.45 0.60 0.51 0.35 0.29 0.28 0.30 0.28 0.33 0.60 0.62 0.48 0.31 0.16 0.16 0.30 0.13 0.08 0.18 0.13
1.48 2.50 4.26 3.75 3.13 2.60 2.25 2.43 4.18 3.52 1.69 1.25 1.59 0.71 0.70 0.54 0.47 0.52 0.50 0.47 0.58 0.62 0.68 0.72 0.64 0.40 0.28 0.47 0.26 0.13 0.36 0.63
1.14 0.97 2.10 2.11 1.86 2.21 2.07 1.43 2.06 3.79 1.92 1.46 1.23 1.21 0.75 0.51 0.32 0.36 0.34 0.31 0.38 0.41 0.58 0.60 0.48 0.46 0.43 0.22 0.15 0.11 0.16 0.36
1.07 0.86 1.17 1.69 1.79 1.87 1.57 0.93 1.27 2.74 2.32 1.69 1.08 1.30 1.08 0.74 0.52 0.28 0.21 0.24 0.29 0.24 0.29 0.31 0.27 0.29 0.31 0.25 0.21 0.16 0.13 0.21
0.60 0.77 0.72 1.07 1.58 1.29 1.41 0.95 1.01 2.01 2.45 1.76 1.19 0.90 0.93 0.55 0.44 0.41 0.45 0.42 0.29 0.25 0.27 0.24 0.36 0.59 0.62 0.48 0.28 0.17 0.16 0.16
0.46 0.50 0.63 1.06 1.36 1.11 1.06 0.94 0.80 1.26 2.05 1.78 1.78 1.05 0.87 0.63 0.45 0.35 0.33 0.40 0.56 0.61 0.49 0.35 0.29 0.35 0.61 0.44 0.31 0.21 0.23 0.16
0.31 0.54 0.83 0.95 1.11 1.04 1.13 0.94 0.83 1.21 1.66 1.67 1.84 1.72 0.83 0.80 0.61 0.34 0.29 0.48 0.73 0.88 0.64 0.33 0.29 0.30 0.31 0.20 0.12 0.14 0.17 0.18
0.51 0.82 1.19 1.41 1.32 1.28 1.78 1.60 1.33 1.19 1.53 1.52 1.18 1.73 1.17 0.76 0.66 0.41 0.41 0.36 0.51 0.84 0.83 0.69 0.46 0.29 0.29 0.29 0.13 0.08 0.12 0.16
0.68 1.07 1.36 1.46 2.16 2.03 1.86 1.36 1.31 1.21 1.38 1.33 1.15 1.31 1.49 1.06 0.78 0.61 0.61 0.69 0.59 0.57 0.74 0.74 0.75 0.65 0.61 0.50 0.30 0.17 0.16 0.17
0.81 1.22 1.53 1.22 0.84 0.67 0.93 0.85 0.81 1.07 1.36 1.12 0.84 1.04 1.20 1.42 0.95 0.64 0.61 0.68 0.74 0.95 0.92 0.82 0.55 0.77 1.18 0.98 0.71 0.36 0.27 0.20
0.41 0.37 0.54 0.23 0.16 0.25 0.56 0.64 0.75 0.87 1.10 0.88 0.78 0.98 1.24 1.28 1.21 1.08 0.71 0.70 0.80 1.22 1.26 1.23 0.74 1.05 1.31 1.42 1.11 0.93 0.52 0.37
0.06 0.06 0.27 0.23 0.13 0.24 0.50 0.84 1.02 1.19 1.44 1.29 0.92 1.09 1.10 1.33 1.09 1.34 1.21 1.21 1.05 1.21 1.43 1.23 0.83 0.97 1.14 1.25 1.26 1.04 0.76 0.67
0.02 0.07 0.14 0.20 0.26 0.33 0.43 0.68 0.73 0.84 0.89 1.14 0.95 0.93 1.08 1.23 1.31 1.46 1.46 1.39 1.38 1.27 1.46 1.38 1.32 1.02 1.21 1.01 0.91 0.91 0.97 0.78
0.10 0.13 0.16 0.15 0.23 0.41 0.35 0.47 0.63 0.75 0.91 1.17 1.33 0.98 0.81 0.84 1.13 1.29 1.44 1.41 1.35 1.42 1.40 1.51 1.48 1.64 1.66 1.71 1.61 1.48 1.55 1.58
0.16 0.16 0.19 0.21 0.29 0.39 0.41 0.36 0.36 0.38 0.67 1.04 1.71 1.70 1.16 0.95 1.03 1.09 1.24 1.36 1.25 1.48 1.57 1.45 1.70 1.80 1.86 2.15 2.24 2.26 2.12 2.12
0.22 0.21 0.22 0.32 0.39 0.44 0.44 0.49 0.43 0.42 0.41 0.57 1.05 2.11 2.17 1.71 1.31 1.31 1.44 1.67 1.86 1.83 1.88 1.84 1.66 1.69 1.50 1.46 1.46 1.60 1.88 2.41
0.33 0.24 0.21 0.24 0.28 0.39 0.40 0.34 0.35 0.32 0.39 0.44 0.48 0.75 1.40 1.66 1.50 1.25 1.63 2.15 2.25 2.51 2.43 2.26 2.30 2.23 2.17 2.07 1.92 1.67 1.56 1.52

GFSFLT2_prec_precacc_186.txt.gz
Total_Precipitation_Accumulation
5.27 7.53 5.17 4.08 4.31 3.30 3.33 2.38 2.16 1.90 1.39 0.82 0.43 0.42 0.59 0.33 0.27 0.20 0.15 0.13 0.18 0.26 0.19 0.15 0.08 0.06 0.07 0.06 0.13 0.04 0.14 0.47
6.76 6.75 5.25 3.52 3.46 4.01 3.25 3.43 2.81 2.04 1.61 1.32 0.47 0.53 0.46 0.50 0.32 0.25 0.15 0.09 0.11 0.13 0.21 0.24 0.28 0.26 0.08 0.08 0.22 0.17 0.13 0.29
5.84 7.31 6.11 3.64 2.52 3.43 2.96 3.65 3.19 2.04 1.59 2.08 0.83 0.41 0.43 0.38 0.29 0.17 0.16 0.11 0.11 0.17 0.38 0.35 0.30 0.26 0.18 0.20 0.21 0.12 0.17 0.10
3.33 5.35 6.94 4.40 2.98 2.11 2.21 2.95 4.64 2.34 1.57 1.78 1.45 0.60 0.51 0.35 0.29 0.28 0.30 0.28 0.33 0.60 0.62 0.48 0.31 0.16 0.16 0.30 0.13 0.08 0.18 0.13
1.48 2.50 4.26 3.75 3.13 2.60 2.25 2.43 4.18 3.52 1.69 1.25 1.59 0.71 0.70 0.54 0.47 0.52 0.50 0.47 0.58 0.62 0.68 0.72 0.64 0.40 0.28 0.47 0.26 0.13 0.36 0.63
1.14 0.97 2.10 2.11 1.86 2.21 2.07 1.43 2.06 3.79 1.92 1.46 1.23 1.21 0.75 0.51 0.32 0.36 0.34 0.31 0.38 0.41 0.58 0.60 0.48 0.46 0.43 0.22 0.15 0.11 0.16 0.36
1.07 0.86 1.17 1.69 1.79 1.87 1.57 0.93 1.27 2.74 2.32 1.69 1.08 1.30 1.08 0.74 0.52 0.28 0.21 0.24 0.29 0.24 0.29 0.31 0.27 0.29 0.31 0.25 0.21 0.16 0.13 0.21
0.60 0.77 0.72 1.07 1.58 1.29 1.41 0.95 1.01 2.01 2.45 1.76 1.19 0.90 0.93 0.55 0.44 0.41 0.45 0.42 0.29 0.25 0.27 0.24 0.36 0.59 0.62 0.48 0.28 0.17 0.16 0.16
0.46 0.50 0.63 1.06 1.36 1.11 1.06 0.94 0.80 1.26 2.05 1.78 1.78 1.05 0.87 0.63 0.45 0.35 0.33 0.40 0.56 0.61 0.49 0.35 0.29 0.35 0.61 0.44 0.31 0.21 0.23 0.16
0.31 0.54 0.83 0.95 1.11 1.04 1.13 0.94 0.83 1.21 1.66 1.67 1.84 1.72 0.83 0.80 0.61 0.34 0.29 0.48 0.73 0.88 0.64 0.33 0.29 0.30 0.31 0.20 0.12 0.14 0.17 0.18
0.51 0.82 1.19 1.41 1.32 1.28 1.78 1.60 1.33 1.19 1.53 1.52 1.18 1.73 1.17 0.76 0.66 0.41 0.41 0.36 0.51 0.84 0.83 0.69 0.46 0.29 0.29 0.29 0.13 0.08 0.12 0.16
0.68 1.07 1.36 1.46 2.16 2.03 1.86 1.36 1.31 1.21 1.38 1.33 1.15 1.31 1.49 1.06 0.78 0.61 0.61 0.69 0.59 0.57 0.74 0.74 0.75 0.65 0.61 0.50 0.30 0.17 0.16 0.17
0.81 1.22 1.53 1.22 0.84 0.67 0.93 0.85 0.81 1.07 1.36 1.12 0.84 1.04 1.20 1.42 0.95 0.64 0.61 0.68 0.74 0.95 0.92 0.82 0.55 0.77 1.18 0.98 0.71 0.36 0.27 0.20
0.41 0.37 0.54 0.23 0.16 0.25 0.56 0.64 0.75 0.87 1.10 0.88 0.78 0.98 1.24 1.28 1.21 1.08 0.71 0.70 0.80 1.22 1.26 1.23 0.74 1.05 1.31 1.42 1.11 0.93 0.52 0.37
0.06 0.06 0.27 0.23 0.13 0.24 0.50 0.84 1.02 1.19 1.44 1.29 0.92 1.09 1.10 1.33 1.09 1.34 1.21 1.21 1.05 1.21 1.43 1.23 0.83 0.97 1.14 1.25 1.26 1.04 0.76 0.67
0.02 0.07 0.14 0.20 0.26 0.33 0.43 0.68 0.73 0.84 0.89 1.14 0.95 0.93 1.08 1.23 1.31 1.46 1.46 1.39 1.38 1.27 1.46 1.38 1.32 1.02 1.21 1.01 0.91 0.91 0.97 0.78
0.10 0.13 0.16 0.15 0.23 0.41 0.35 0.47 0.63 0.75 0.91 1.17 1.33 0.98 0.81 0.84 1.13 1.29 1.44 1.41 1.35 1.42 1.40 1.51 1.48 1.64 1.66 1.71 1.61 1.48 1.55 1.58
0.16 0.16 0.19 0.21 0.29 0.39 0.41 0.36 0.36 0.38 0.67 1.04 1.71 1.70 1.16 0.95 1.03 1.09 1.24 1.36 1.25 1.48 1.57 1.45 1.70 1.80 1.86 2.15 2.24 2.26 2.12 2.12
0.22 0.21 0.22 0.32 0.39 0.44 0.44 0.49 0.43 0.42 0.41 0.57 1.05 2.11 2.17 1.71 1.31 1.31 1.44 1.67 1.86 1.83 1.88 1.84 1.66 1.69 1.50 1.46 1.46 1.60 1.88 2.42
0.33 0.24 0.21 0.24 0.28 0.39 0.40 0.34 0.35 0.32 0.39 0.44 0.48 0.75 1.40 1.66 1.50 1.25 1.63 2.15 2.25 2.51 2.43 2.26 2.30 2.23 2.17 2.07 1.92 1.67 1.56 1.52

GFSFLT2_prec_precacc_189.txt.gz
Total_Precipitation_Accumulation
5.27 7.53 5.17 4.08 4.31 3.30 3.33 2.38 2.16 1.90 1.39 0.82 0.43 0.42 0.59 0.33 0.27 0.20 0.15 0.13 0.18 0.26 0.19 0.15 0.08 0.06 0.07 0.06 0.13 0.04 0.14 0.47
6.77 6.75 5.25 3.52 3.46 4.01 3.25 3.43 2.81 2.04 1.61 1.32 0.47 0.53 0.46 0.50 0.32 0.25 0.15 0.09 0.11 0.13 0.21 0.24 0.28 0.26 0.08 0.08 0.22 0.17 0.13 0.29
5.84 7.31 6.11 3.64 2.52 3.43 2.96 3.65 3.19 2.04 1.59 2.08 0.83 0.41 0.43 0.38 0.29 0.17 0.16 0.11 0.11 0.17 0.38 0.35 0.30 0.26 0.18 0.20 0.21 0.12 0.17 0.10
3.33 5.35 6.94 4.40 2.98 2.11 2.21 2.95 4.64 2.34 1.57 1.78 1.45 0.60 0.51 0.35 0.29 0.28 0.30 0.28 0.33 0.60 0.62 0.48 0.31 0.16 0.16 0.30 0.13 0.08 0.18 0.13
1.48 2.50 4.26 3.75 3.13 2.60 2.25 2.43 4.18 3.52 1.69 1.25 1.59 0.71 0.70 0.54 0.47 0.52 0.50 0.47 0.58 0.62 0.68 0.72 0.64 0.40 0.28 0.47 0.26 0.13 0.36 0.63
1.14 0.97 2.10 2.11 1.86 2.21 2.07 1.43 2.06 3.79 1.92 1.46 1.23 1.21 0.75 0.51 0.32 0.36 0.34 0.31 0.38 0.41 0.58 0.60 0.48 0.46 0.43 0.22 0.15 0.11 0.16 0.36
1.07 0.86 1.17 1.69 1.79 1.87 1.57 0.93 1.27 2.74 2.32 1.69 1.08 1.30 1.08 0.74 0.52 0.28 0.21 0.24 0.29 0.24 0.29 0.31 0.27 0.29 0.31 0.25 0.21 0.16 0.13 0.21
0.60 0.77 0.72 1.07 1.58 1.29 1.41 0.95 1.01 2.01 2.45 1.76 1.19 0.90 0.93 0.55 0.44 0.41 0.45 0.42 0.29 0.25 0.27 0.24 0.36 0.59 0.62 0.48 0.28 0.17 0.16 0.16
0.46 0.50 0.63 1.06 1.36 1.11 1.06 0.94 0.80 1.26 2.05 1.78 1.78 1.05 0.87 0.63 0.45 0.35 0.33 0.40 0.56 0.61 0.49 0.35 0.29 0.35 0.61 0.44 0.31 0.21 0.23 0.16
0.31 0.54 0.83 0.95 1.11 1.04 1.13 0.94 0.83 1.21 1.66 1.67 1.84 1.72 0.83 0.80 0.61 0.34 0.29 0.48 0.73 0.88 0.64 0.33 0.29 0.30 0.31 0.20 0.12 0.14 0.17 0.18
0.51 0.82 1.19 1.41 1.32 1.28 1.78 1.60 1.33 1.19 1.53 1.52 1.18 1.73 1.17 0.76 0.66 0.41 0.41 0.36 0.51 0.84 0.83 0.69 0.46 0.29 0.29 0.29 0.13 0.08 0.12 0.16
0.68 1.07 1.36 1.46 2.16 2.03 1.86 1.36 1.31 1.21 1.38 1.33 1.15 1.31 1.49 1.06 0.78 0.61 0.61 0.69 0.59 0.57 0.74 0.74 0.75 0.65 0.61 0.50 0.30 0.17 0.16 0.17
0.81 1.22 1.53 1.22 0.84 0.67 0.93 0.85 0.81 1.07 1.36 1.12 0.84 1.04 1.20 1.42 0.95 0.64 0.61 0.68 0.74 0.95 0.92 0.82 0.55 0.77 1.18 0.98 0.71 0.36 0.27 0.20
0.41 0.37 0.54 0.23 0.16 0.25 0.56 0.64 0.75 0.87 1.10 0.88 0.78 0.98 1.24 1.28 1.21 1.08 0.71 0.70 0.80 1.22 1.26 1.23 0.74 1.05 1.31 1.42 1.11 0.93 0.52 0.37
0.06 0.06 0.27 0.23 0.13 0.24 0.50 0.84 1.02 1.19 1.44 1.29 0.92 1.09 1.10 1.33 1.09 1.34 1.21 1.21 1.05 1.21 1.43 1.23 0.83 0.97 1.14 1.25 1.26 1.04 0.76 0.67
0.02 0.07 0.14 0.20 0.26 0.33 0.43 0.68 0.73 0.84 0.89 1.14 0.95 0.93 1.08 1.23 1.31 1.46 1.46 1.39 1.38 1.27 1.46 1.38 1.32 1.02 1.21 1.01 0.91 0.91 0.97 0.78
0.10 0.13 0.16 0.15 0.23 0.41 0.35 0.47 0.63 0.75 0.91 1.17 1.33 0.98 0.81 0.84 1.13 1.29 1.44 1.41 1.35 1.42 1.40 1.51 1.48 1.64 1.66 1.71 1.61 1.48 1.55 1.58
0.16 0.16 0.19 0.21 0.29 0.39 0.41 0.36 0.36 0.38 0.67 1.04 1.71 1.70 1.16 0.95 1.03 1.09 1.24 1.36 1.25 1.48 1.57 1.45 1.70 1.80 1.86 2.15 2.24 2.26 2.12 2.12
0.22 0.21 0.22 0.32 0.39 0.44 0.44 0.49 0.43 0.42 0.41 0.57 1.05 2.11 2.17 1.71 1.31 1.31 1.44 1.67 1.86 1.83 1.88 1.84 1.66 1.69 1.50 1.46 1.46 1.60 1.88 2.42
0.33 0.24 0.21 0.24 0.28 0.39 0.40 0.34 0.35 0.32 0.39 0.44 0.48 0.75 1.40 1.66 1.50 1.25 1.63 2.15 2.25 2.51 2.43 2.26 2.30 2.23 2.17 2.07 1.92 1.67 1.56 1.52

GFSFLT2_prec_precacc_195.txt.gz
Total_Precipitation_Accumulation
5.29 7.54 5.17 4.08 4.31 3.31 3.33 2.38 2.16 1.90 1.39 0.82 0.43 0.42 0.59 0.33 0.27 0.20 0.15 0.13 0.18 0.26 0.19 0.15 0.08 0.06 0.07 0.06 0.13 0.04 0.14 0.47
6.78 6.76 5.26 3.52 3.46 4.01 3.25 3.43 2.81 2.04 1.61 1.32 0.47 0.53 0.46 0.50 0.32 0.25 0.15 0.09 0.11 0.13 0.21 0.24 0.28 0.26 0.08 0.08 0.22 0.17 0.13 0.29
5.85 7.31 6.11 3.64 2.52 3.43 2.96 3.65 3.19 2.04 1.59 2.08 0.83 0.41 0.43 0.38 0.29 0.17 0.16 0.11 0.11 0.17 0.38 0.35 0.30 0.26 0.18 0.20 0.21 0.12 0.17 0.10
3.33 5.36 6.94 4.40 2.98 2.11 2.21 2.95 4.64 2.34 1.57 1.78 1.45 0.60 0.51 0.35 0.29 0.28 0.30 0.28 0.33 0.60 0.62 0.48 0.31 0.16 0.16 0.30 0.13 0.08 0.18 0.13
1.48 2.50 4.26 3.75 3.13 2.60 2.25 2.43 4.18 3.52 1.69 1.25 1.59 0.71 0.70 0.54 0.47 0.52 0.50 0.47 0.58 0.62 0.68 0.72 0.64 0.40 0.28 0.47 0.26 0.13 0.36 0.63
1.14 0.97 2.10 2.11 1.86 2.21 2.07 1.43 2.06 3.79 1.92 1.46 1.23 1.21 0.75 0.51 0.32 0.36 0.34 0.31 0.38 0.41 0.58 0.60 0.48 0.46 0.43 0.22 0.15 0.11 0.16 0.36
1.07 0.86 1.17 1.69 1.79 1.87 1.57 0.93 1.27 2.74 2.32 1.69 1.08 1.30 1.08 0.74 0.52 0.28 0.21 0.24 0.29 0.24 0.29 0.31 0.27 0.29 0.31 0.25 0.21 0.16 0.13 0.21
0.60 0.77 0.72 1.07 1.58 1.29 1.41 0.95 1.01 2.01 2.45 1.76 1.19 0.90 0.93 0.55 0.44 0.41 0.45 0.42 0.29 0.25 0.27 0.24 0.36 0.59 0.62 0.48 0.28 0.17 0.16 0.16
0.46 0.50 0.63 1.06 1.36 1.11 1.06 0.94 0.80 1.26 2.05 1.78 1.78 1.05 0.87 0.63 0.45 0.35 0.33 0.40 0.56 0.61 0.49 0.35 0.29 0.35 0.61 0.44 0.31 0.21 0.23 0.16
0.31 0.54 0.83 0.95 1.11 1.04 1.13 0.94 0.83 1.21 1.66 1.67 1.84 1.72 0.83 0.80 0.61 0.34 0.29 0.48 0.73 0.88 0.64 0.33 0.29 0.30 0.31 0.20 0.12 0.14 0.17 0.18
0.51 0.82 1.19 1.41 1.32 1.28 1.78 1.60 1.33 1.19 1.53 1.52 1.18 1.73 1.17 0.76 0.66 0.41 0.41 0.36 0.51 0.84 0.83 0.69 0.46 0.29 0.29 0.29 0.13 0.08 0.12 0.16
0.68 1.07 1.36 1.46 2.16 2.03 1.86 1.36 1.31 1.21 1.38 1.33 1.15 1.31 1.49 1.06 0.78 0.61 0.61 0.69 0.59 0.57 0.74 0.74 0.75 0.65 0.61 0.50 0.30 0.17 0.16 0.17
0.81 1.22 1.53 1.22 0.84 0.67 0.93 0.85 0.81 1.07 1.36 1.12 0.84 1.04 1.20 1.42 0.95 0.64 0.61 0.68 0.74 0.95 0.92 0.82 0.55 0.77 1.18 0.98 0.71 0.36 0.27 0.20
0.41 0.37 0.54 0.23 0.16 0.25 0.56 0.64 0.75 0.87 1.10 0.88 0.78 0.98 1.24 1.28 1.21 1.08 0.71 0.70 0.80 1.22 1.26 1.23 0.74 1.05 1.31 1.42 1.11 0.93 0.52 0.37
0.06 0.06 0.27 0.23 0.13 0.24 0.50 0.84 1.02 1.19 1.44 1.29 0.92 1.09 1.10 1.33 1.09 1.34 1.21 1.21 1.05 1.21 1.43 1.23 0.83 0.97 1.14 1.25 1.26 1.04 0.76 0.67
0.02 0.07 0.15 0.23 0.28 0.35 0.44 0.69 0.74 0.84 0.89 1.14 0.95 0.93 1.08 1.23 1.31 1.46 1.46 1.39 1.38 1.27 1.46 1.38 1.32 1.02 1.21 1.01 0.91 0.91 0.97 0.78
0.10 0.13 0.18 0.21 0.29 0.45 0.38 0.50 0.64 0.75 0.91 1.17 1.33 0.98 0.81 0.84 1.13 1.29 1.44 1.41 1.35 1.42 1.40 1.51 1.48 1.64 1.66 1.71 1.61 1.48 1.55 1.58
0.16 0.16 0.20 0.25 0.35 0.42 0.43 0.39 0.36 0.38 0.67 1.04 1.71 1.70 1.16 0.95 1.03 1.09 1.24 1.36 1.25 1.48 1.57 1.45 1.70 1.80 1.86 2.15 2.24 2.26 2.12 2.12
0.22 0.21 0.22 0.32 0.40 0.46 0.46 0.51 0.43 0.42 0.41 0.57 1.05 2.11 2.17 1.71 1.31 1.31 1.44 1.67 1.86 1.83 1.88 1.84 1.66 1.69 1.50 1.46 1.46 1.60 1.88 2.42
0.33 0.24 0.21 0.24 0.28 0.39 0.41 0.35 0.35 0.32 0.39 0.44 0.48 0.75 1.40 1.66 1.50 1.25 1.63 2.15 2.25 2.51 2.43 2.26 2.30 2.23 2.17 2.07 1.92 1.67 1.56 1.52